GFSNGP_250_spd_000.txt.gz
Wind_Speed
50 47 42 42 48 54 58 61 59 56 62 64 69 73 75 81 83 85 85 90 95 97 99 102 102 103 106 105 113 118 123 125 130 133 140 124 114 108 103 97 90 86 81 75
39 45 44 44 52 56 60 63 65 65 67 76 76 81 84 84 85 86 90 95 98 99 103 105 106 105 107 111 118 122 127 132 136 134 134 113 108 104 99 93 88 81 76 70
39 47 50 54 61 64 64 67 70 70 72 75 79 81 84 87 90 91 97 99 99 102 105 107 109 112 117 122 126 131 135 137 136 135 115 108 106 100 94 89 83 76 71 67
48 51 50 57 69 72 68 71 74 74 77 80 81 86 91 94 95 97 103 104 106 108 109 113 118 120 125 130 136 137 140 142 138 119 111 107 101 94 90 84 77 72 68 65
56 58 59 64 75 75 74 73 79 81 84 86 89 87 91 100 102 106 111 112 113 115 117 119 124 128 134 138 140 141 138 136 124 114 107 100 93 89 85 77 73 70 67 64
64 62 62 71 76 79 82 81 85 90 93 95 97 99 99 106 109 111 115 117 120 122 129 131 132 136 140 140 140 136 131 128 114 107 99 92 88 84 77 72 70 67 66 60
70 74 71 80 81 82 85 83 88 94 98 99 101 107 111 112 114 117 120 125 130 133 136 137 139 142 142 137 131 124 119 109 108 98 91 88 83 77 73 70 69 66 62 58
77 80 78 83 86 89 93 92 97 97 101 105 107 111 116 121 125 127 128 133 136 139 140 140 135 129 127 124 117 110 104 102 96 89 86 82 77 73 70 68 66 62 59 53
85 89 89 89 94 95 100 103 103 107 111 116 121 124 127 130 132 134 136 134 131 129 127 123 121 121 117 111 104 102 98 93 87 84 82 77 71 69 67 67 63 59 54 49
88 92 96 96 99 105 107 110 113 116 118 120 123 125 129 130 131 132 128 124 121 118 118 117 112 106 100 100 99 91 89 85 83 80 76 71 68 65 64 62 60 55 50 46
96 98 102 103 111 114 117 116 115 117 121 124 126 128 128 128 125 120 117 117 114 110 106 102 97 97 96 92 88 86 83 82 78 74 69 67 66 63 62 58 55 50 47 44
102 104 111 108 109 109 114 116 119 122 126 126 127 123 120 118 114 112 108 103 100 99 98 97 95 91 90 88 86 84 82 77 72 68 66 65 63 63 57 56 50 48 44 40
112 105 105 112 115 119 128 132 131 132 126 123 121 119 112 106 102 101 100 100 97 94 91 89 87 87 88 86 84 80 76 71 66 65 63 61 60 58 58 50 47 44 40 37
111 113 117 121 126 131 131 132 128 124 123 119 108 101 99 99 96 94 94 94 92 90 88 88 87 85 85 83 79 75 71 66 64 63 61 59 56 55 51 47 43 39 36 33
120 120 126 132 138 130 129 123 120 120 110 101 97 95 93 94 95 95 93 92 90 89 89 88 86 84 80 77 73 68 66 64 61 59 58 55 54 49 46 42 39 37 33 30
124 127 136 134 134 128 123 119 113 105 98 94 93 92 93 94 94 94 94 93 91 91 87 84 82 80 76 71 68 64 61 60 59 58 55 53 48 45 41 38 36 34 30 28
131 137 131 130 121 117 112 107 99 93 92 93 94 92 92 93 93 93 93 91 88 85 83 80 78 74 69 67 63 60 59 57 56 54 52 47 44 41 39 36 34 31 28 26
129 127 126 122 116 107 102 98 94 93 90 91 92 90 91 90 90 89 87 84 82 80 78 76 72 68 65 61 60 59 57 56 53 51 46 43 40 39 37 34 31 29 26 25
127 122 114 110 108 100 93 91 90 91 91 90 91 91 89 87 84 83 81 79 77 75 74 70 66 63 60 59 58 57 56 53 50 45 43 40 39 37 34 31 29 27 24 23
115 108 104 101 99 97 95 95 94 95 94 93 91 87 84 81 79 78 76 74 73 70 66 64 61 59 58 57 56 55 52 49 45 43 40 38 37 35 31 29 27 24 22 21
104 101 100 98 95 95 96 94 93 93 93 89 84 80 77 76 75 73 72 69 67 65 61 58 57 56 55 56 54 51 49 46 42 40 39 37 34 31 28 26 24 22 21 20
101 98 96 95 92 92 92 92 91 89 83 79 76 74 73 72 71 67 65 64 62 59 57 56 55 54 54 53 51 48 45 42 40 40 37 34 31 28 26 24 22 21 21 20
100 95 93 92 90 88 89 87 82 78 75 72 72 71 70 67 64 63 62 60 58 56 55 54 53 53 51 49 47 45 42 41 41 37 34 32 29 26 24 22 22 21 20 20
92 89 88 88 88 85 80 76 74 71 70 69 68 66 63 62 60 60 57 56 55 54 54 53 52 50 48 46 44 43 41 41 37 34 32 31 28 25 23 22 22 21 20 20
86 85 84 82 79 75 72 70 68 67 66 64 62 61 59 58 57 55 53 53 53 53 52 52 50 47 45 43 42 41 40 38 34 32 32 30 27 24 23 22 21 20 19 19
77 76 73 72 69 67 65 64 63 61 60 59 58 57 55 53 52 51 52 51 51 51 52 49 47 45 43 41 40 40 38 34 31 31 30 28 26 24 22 21 20 19 19 19
68 67 65 64 62 61 60 59 59 58 56 54 54 52 51 50 50 50 50 50 51 50 49 47 44 43 41 39 38 37 34 31 30 29 28 27 26 24 22 20 19 19 19 19

GFSNGP_250_spd_003.txt.gz
Wind_Speed
36 33 35 37 43 48 53 59 59 59 67 69 71 73 75 78 80 84 87 91 95 97 99 104 109 114 117 119 120 124 128 129 130 132 131 126 121 114 108 105 99 95 87 82
39 44 44 47 55 56 58 60 62 63 65 70 74 79 83 86 86 90 95 97 99 102 106 111 115 118 121 124 127 131 132 130 128 121 117 113 109 105 98 92 88 84 79 78
39 45 47 51 57 56 56 61 64 68 71 73 78 84 86 88 90 94 98 102 104 109 113 118 124 128 131 131 130 127 128 125 122 118 114 107 99 93 92 86 82 78 78 73
48 51 50 59 62 62 62 67 71 77 77 81 84 85 91 96 101 104 108 110 114 120 124 126 130 131 128 126 121 120 120 117 112 106 98 92 91 88 83 79 77 77 75 68
50 48 50 63 64 66 68 74 80 82 86 88 92 93 96 104 106 109 114 121 120 122 126 127 129 126 120 117 116 113 109 104 97 91 89 84 80 80 79 77 77 74 67 62
61 59 60 70 70 75 78 77 83 87 91 95 99 102 102 107 110 112 116 120 123 124 125 123 121 117 115 111 106 101 96 96 91 84 79 80 80 79 78 77 72 66 62 58
67 68 70 77 78 83 86 86 88 96 100 101 105 109 110 108 110 118 122 121 119 120 120 114 110 106 103 99 96 92 87 85 82 79 80 79 79 78 76 71 65 62 59 57
72 76 81 86 86 92 92 91 102 104 107 108 110 108 111 118 122 125 122 119 119 117 112 106 103 100 95 92 93 90 86 83 82 82 81 79 78 74 69 62 60 59 55 55
82 81 86 88 92 95 100 106 111 111 111 110 109 116 121 123 127 125 124 121 114 108 103 103 100 96 95 94 90 89 86 85 82 81 80 77 73 67 61 58 58 56 53 52
87 87 85 91 95 104 108 113 113 113 115 116 119 124 126 135 128 125 121 113 106 101 98 98 97 95 94 94 92 90 87 85 82 78 76 73 66 60 57 55 55 55 49 48
86 92 92 96 103 106 109 117 120 116 118 124 129 132 136 134 128 126 118 107 100 98 96 95 95 95 95 94 91 89 85 81 78 74 70 66 62 58 55 51 53 53 46 44
93 97 104 103 108 115 120 127 126 123 122 126 133 134 130 126 126 119 105 98 97 97 96 95 95 94 93 92 89 84 81 77 74 69 65 61 57 57 52 50 50 48 43 41
107 109 113 115 116 121 126 130 131 129 128 134 132 126 122 122 115 102 98 96 96 95 95 97 95 94 91 88 85 81 77 72 67 63 58 55 53 52 54 49 44 43 39 37
115 119 120 121 126 129 133 138 134 131 132 131 125 122 120 114 103 99 98 97 97 96 96 96 92 89 85 83 80 75 72 68 64 57 54 52 51 51 50 48 41 38 34 35
119 120 125 129 130 136 140 132 131 131 127 119 119 114 109 104 99 99 99 99 98 96 94 90 88 85 81 77 73 68 64 61 58 55 53 51 51 48 45 41 37 34 33 33
124 129 132 133 140 138 134 130 126 125 122 120 114 108 106 101 99 97 97 96 96 93 89 86 82 78 75 70 66 64 59 56 56 54 53 51 48 44 40 37 34 32 32 32
135 136 138 140 132 130 124 123 117 115 113 110 106 104 101 100 98 97 95 93 90 87 83 79 76 72 67 64 62 59 57 56 54 52 50 48 43 40 37 35 33 32 31 30
137 135 130 132 125 117 111 111 109 106 107 108 107 103 99 97 94 92 91 87 84 80 76 73 69 65 64 61 59 57 56 54 53 50 47 43 40 37 36 35 33 31 29 28
123 123 122 122 115 110 109 108 108 109 108 104 99 95 92 88 87 85 82 79 76 74 70 66 63 61 60 57 56 56 55 54 51 48 43 40 37 36 35 33 30 27 25 24
117 116 113 110 110 109 107 108 106 101 97 94 89 86 85 82 79 77 75 72 69 66 63 61 60 59 56 56 54 54 54 51 48 43 40 37 36 34 31 29 26 24 23 22
108 106 105 104 103 103 101 99 96 93 90 87 84 80 77 75 73 71 69 65 63 61 59 58 57 55 54 53 53 53 51 48 44 40 37 36 32 29 28 26 24 22 20 20
105 103 102 102 99 96 95 91 87 83 80 77 74 72 71 69 67 64 62 61 59 57 56 55 53 53 51 50 49 49 47 44 41 37 36 32 29 28 26 25 23 21 19 19
100 99 97 95 89 86 85 82 79 75 73 71 68 67 65 62 60 59 58 56 55 54 53 53 52 51 50 48 46 45 44 42 39 37 35 30 29 28 26 24 23 22 20 20
95 91 88 87 83 80 77 76 73 70 68 66 63 60 59 57 57 55 54 53 52 52 51 51 50 50 48 46 44 44 43 41 39 37 33 30 29 27 25 24 23 22 21 20
85 80 79 77 76 73 71 69 66 64 61 59 57 56 55 54 52 51 51 50 50 50 49 50 49 48 46 44 42 42 41 40 39 36 32 30 28 26 25 24 24 23 22 21
76 73 72 71 69 66 64 61 58 57 55 54 53 52 50 49 49 48 48 48 49 48 48 48 47 46 44 42 41 40 39 38 37 34 31 29 28 27 25 25 25 23 22 21
70 68 65 63 61 59 57 54 53 53 51 51 49 47 47 47 46 46 47 47 47 47 47 46 45 44 43 43 42 39 37 37 35 33 31 29 29 28 26 25 25 24 22 22

GFSNGP_250_spd_006.txt.gz
Wind_Speed
31 34 36 43 45 50 53 56 56 58 60 61 64 69 74 79 80 83 90 93 96 99 100 104 109 108 113 118 122 123 120 119 117 115 108 104 100 98 97 94 92 89 85 80
39 42 44 47 48 49 51 53 56 59 64 68 71 75 77 80 82 91 99 101 103 106 110 110 111 116 117 121 119 117 118 115 109 105 101 99 94 87 84 80 78 76 76 75
44 47 50 52 52 55 58 64 65 67 70 74 78 79 85 88 89 100 104 107 108 107 110 113 116 120 122 116 114 112 110 106 102 99 97 95 93 88 83 81 79 78 77 73
43 45 46 62 57 59 63 70 73 73 76 81 83 82 88 95 98 102 111 115 114 115 118 120 122 121 115 113 108 103 98 98 97 96 94 91 87 85 83 81 79 78 76 72
51 50 52 67 63 67 68 70 76 78 81 83 86 86 92 98 104 111 114 118 123 125 123 124 125 119 114 109 103 97 94 94 95 95 94 90 87 84 82 80 79 76 71 65
60 61 61 71 73 74 73 75 79 82 83 86 90 94 98 106 107 112 119 122 129 129 126 126 121 113 112 102 98 95 94 96 96 94 91 86 82 78 77 73 72 70 64 56
66 68 71 77 79 82 82 81 82 83 88 95 100 107 111 112 113 121 127 129 136 132 130 129 120 116 108 100 97 97 97 97 95 92 88 83 77 73 71 69 65 61 57 51
72 74 78 80 85 86 87 85 90 93 100 104 110 115 118 120 123 130 132 139 136 132 133 126 119 111 104 102 100 99 98 95 94 90 84 78 74 70 67 63 59 56 52 48
78 77 85 89 90 91 97 99 99 105 110 114 117 121 125 131 135 138 139 139 132 131 128 120 112 106 104 102 102 100 97 94 90 84 79 73 70 66 62 58 54 51 47 44
83 87 90 93 94 97 100 105 108 114 117 119 124 129 135 139 140 142 139 135 133 127 119 110 106 106 104 101 100 97 94 89 84 80 75 70 65 60 54 50 48 48 45 42
92 94 93 97 98 101 107 113 117 119 122 126 130 133 138 140 140 136 134 133 124 118 114 109 105 101 99 96 92 90 85 81 76 72 69 63 58 54 49 45 45 46 45 40
97 101 101 98 103 106 113 115 118 125 132 135 135 137 139 137 134 135 131 120 117 111 109 106 102 98 95 91 88 82 78 73 70 66 60 56 52 49 45 42 42 43 42 40
103 103 106 109 113 119 119 121 128 132 140 144 139 138 136 134 135 126 118 114 111 107 102 99 95 92 89 85 79 74 71 67 63 58 54 50 48 47 46 43 38 41 38 36
108 111 115 119 121 125 129 132 137 140 142 142 139 134 131 127 121 116 112 111 106 101 98 94 90 85 79 74 71 69 66 61 58 55 52 49 46 45 44 42 38 35 33 32
119 120 121 123 126 129 132 138 139 144 142 138 134 129 124 117 112 112 107 103 99 95 91 87 81 74 71 69 66 62 58 55 53 51 49 47 46 44 41 37 34 33 31 29
122 123 126 127 132 136 139 143 143 139 135 132 126 119 111 111 109 105 101 97 92 88 83 77 71 69 67 63 60 56 53 52 51 49 48 47 43 40 36 34 31 31 30 29
129 130 133 135 138 140 143 139 136 130 124 120 114 112 109 107 103 98 93 87 82 78 73 71 69 66 62 59 55 53 51 50 49 48 46 43 40 37 35 32 32 32 31 30
133 135 137 138 136 138 137 131 124 118 112 110 110 107 102 97 92 87 83 79 74 71 69 67 64 61 58 55 52 51 50 49 49 47 44 40 38 36 34 33 32 31 29 27
133 133 132 137 131 126 122 114 108 107 108 107 103 96 91 87 83 79 75 72 70 68 66 62 59 56 53 51 50 49 49 49 48 45 42 39 36 34 34 31 29 28 26 24
130 128 125 121 117 113 110 106 103 102 101 95 89 85 82 79 75 72 70 68 66 63 61 58 55 52 50 49 49 48 48 46 45 42 39 36 34 33 30 27 26 26 24 23
121 119 114 108 104 103 103 100 95 92 88 81 79 76 74 72 70 67 64 62 60 59 56 53 51 49 49 48 48 47 46 44 42 39 37 34 33 29 27 26 25 24 22 21
108 104 101 102 100 96 94 89 82 81 78 75 72 71 69 67 64 61 59 58 56 53 50 49 47 47 47 47 47 45 43 42 40 37 35 33 31 27 25 24 23 22 21 20
95 97 96 95 91 86 84 81 77 76 75 73 69 66 64 61 59 57 55 53 50 49 48 46 47 47 46 46 44 43 42 40 39 37 34 32 29 26 24 23 22 21 20 20
94 94 91 86 82 77 74 75 73 72 69 66 64 61 58 55 54 53 50 48 47 46 46 46 46 46 46 44 42 41 39 38 38 36 33 31 28 26 24 23 22 21 21 20
88 84 79 76 72 71 71 69 67 65 62 59 57 55 54 52 50 49 47 46 45 45 45 45 46 46 44 43 42 40 38 37 37 34 32 30 27 26 24 23 22 22 21 20
77 74 72 71 69 67 65 63 60 57 55 54 53 52 51 49 47 45 44 44 44 44 44 45 44 43 43 42 41 40 38 35 34 33 32 30 28 27 26 25 23 22 22 21
71 70 68 67 63 60 57 55 53 52 51 51 51 49 47 45 44 43 43 42 42 43 43 43 42 42 41 42 42 40 39 37 34 32 32 32 30 29 27 26 24 22 22 21

GFSNGP_250_spd_009.txt.gz
Wind_Speed
32 33 36 42 44 49 49 49 47 52 57 61 65 69 72 75 75 77 79 82 89 96 100 107 112 115 119 125 128 131 133 130 123 117 107 102 97 96 95 94 93 91 88 87
38 37 40 47 46 47 50 53 55 59 63 69 73 75 76 79 81 81 83 90 97 104 109 113 117 122 127 131 132 131 127 122 115 106 102 97 93 91 90 89 87 85 83 81
42 44 46 50 48 51 55 59 60 64 69 72 77 78 79 82 87 91 95 99 107 113 117 123 128 129 130 130 131 123 119 113 106 101 97 94 93 91 89 89 88 84 79 73
45 45 48 61 54 57 60 64 69 70 73 79 82 82 87 90 92 97 103 107 110 117 121 129 133 132 132 133 125 121 111 104 98 96 95 94 92 89 87 85 82 77 72 68
49 49 51 66 63 66 66 67 74 74 82 86 89 87 91 96 99 105 110 113 119 124 132 135 141 139 131 125 122 116 109 104 99 97 95 92 88 85 83 80 75 70 67 64
55 57 60 70 70 70 74 73 78 83 88 93 94 94 95 100 105 112 117 122 126 131 135 143 141 134 130 125 117 111 107 104 100 94 89 86 83 80 76 71 67 65 62 58
62 66 67 72 74 78 80 80 83 90 95 97 99 104 106 112 116 120 125 129 135 140 142 143 139 132 127 119 114 111 108 101 96 91 85 82 78 72 67 63 61 59 56 52
67 73 77 80 79 82 85 87 92 96 100 103 108 112 117 121 122 125 129 133 140 142 145 141 136 128 121 117 114 108 102 97 91 86 82 76 70 66 62 58 56 54 52 47
78 77 83 83 84 88 92 93 98 102 106 113 117 118 121 123 128 133 137 141 145 146 142 134 127 121 116 114 107 100 94 88 84 79 73 69 65 62 56 53 51 49 47 44
79 81 85 87 92 95 97 100 104 106 112 117 120 124 128 132 135 139 142 145 143 139 133 126 121 116 113 106 98 91 87 82 75 71 68 64 59 55 53 50 47 46 46 43
81 84 89 96 99 97 101 106 109 115 121 126 130 134 140 143 143 144 145 145 140 132 124 119 116 111 104 95 90 85 79 73 70 66 62 58 55 52 49 46 44 45 45 42
89 95 99 97 101 107 109 114 119 122 129 131 135 139 144 145 143 143 142 135 128 121 117 114 107 99 93 89 84 78 73 69 65 61 58 54 51 49 45 43 42 44 42 41
97 100 104 107 108 111 114 123 131 133 135 140 144 146 144 142 139 135 126 121 117 115 112 104 97 92 86 82 78 73 69 65 61 58 55 52 49 46 44 42 40 41 37 37
107 106 109 111 114 120 126 130 134 136 142 150 151 147 141 136 130 125 118 115 113 107 100 94 90 84 80 76 71 67 65 61 58 55 52 49 46 45 43 42 40 36 34 32
114 114 117 120 125 125 131 133 138 146 154 154 145 140 132 124 118 114 112 110 105 98 92 87 83 78 74 70 66 62 60 57 55 52 49 46 45 43 41 38 36 33 30 28
122 124 127 130 128 133 137 143 153 154 151 140 129 124 119 115 113 111 107 102 95 90 85 81 76 73 68 63 61 58 55 52 50 49 46 45 43 40 38 36 33 31 29 29
130 133 132 135 136 139 147 154 151 146 135 125 119 114 111 111 107 103 97 91 86 82 79 75 72 67 63 61 57 54 51 49 47 46 46 44 40 38 36 34 33 32 29 26
134 135 136 139 142 146 150 145 139 128 117 111 108 107 105 104 96 92 87 82 80 76 73 70 67 63 60 56 53 50 49 46 46 46 44 41 38 36 34 33 33 29 26 25
140 141 142 148 148 145 138 127 118 112 106 104 103 100 96 91 87 84 79 77 73 69 67 66 62 59 54 51 48 47 46 45 45 44 42 39 36 34 32 32 30 27 25 24
140 144 153 148 142 130 117 109 104 105 104 99 93 87 84 82 79 76 72 69 67 65 63 61 58 53 50 48 46 45 45 45 43 41 39 36 34 32 31 29 26 26 24 23
148 145 138 120 114 108 105 104 102 100 95 89 83 80 78 74 70 67 65 63 62 60 59 56 53 50 47 47 45 45 44 44 42 39 37 36 34 30 29 26 25 25 23 22
130 116 111 107 103 101 102 101 96 89 82 79 78 74 70 66 63 61 60 59 58 57 55 52 49 47 46 45 45 44 43 43 40 38 37 35 33 29 26 24 24 23 22 21
103 101 99 99 99 96 95 91 84 79 75 73 69 66 63 60 59 57 56 56 55 53 50 49 47 46 45 44 44 43 42 40 37 37 35 33 31 28 25 23 23 23 21 21
96 95 95 95 92 88 81 78 75 71 68 66 63 61 58 57 56 55 54 53 51 49 47 46 46 45 44 44 43 43 41 39 36 35 34 32 30 28 26 24 23 24 22 21
91 90 89 85 80 76 72 69 67 64 62 59 58 57 57 56 54 52 49 48 46 45 45 44 45 44 43 43 43 42 40 39 37 35 33 31 29 28 27 26 24 23 23 21
85 83 80 76 71 68 66 64 62 60 58 56 56 55 54 51 49 47 46 45 44 44 45 45 44 43 43 43 41 41 40 39 37 34 32 32 29 28 26 26 25 22 21 21
79 76 72 71 65 62 60 58 57 56 54 53 52 51 48 47 46 44 43 43 44 44 44 44 43 43 42 41 40 40 40 38 34 32 31 30 29 27 27 25 24 23 21 20

GFSNGP_250_spd_012.txt.gz
Wind_Speed
33 33 34 36 37 39 40 42 41 46 53 58 60 62 66 72 73 79 83 85 87 91 97 103 107 111 115 121 125 130 134 137 136 134 120 113 105 100 98 97 94 90 85 82
36 35 38 43 44 44 44 48 51 53 58 62 65 68 72 76 79 83 87 89 94 99 104 107 113 118 124 131 135 137 136 136 132 121 111 103 102 99 95 92 87 83 80 77
39 41 45 50 50 45 48 55 58 59 63 67 72 74 79 81 84 88 93 98 102 109 114 120 123 126 132 138 140 137 133 129 119 108 105 104 102 97 93 87 82 78 75 71
37 42 44 57 50 50 53 59 66 68 72 74 75 79 85 89 91 96 100 104 109 116 121 126 131 139 143 142 136 132 125 118 111 106 105 102 97 91 85 80 76 73 68 63
44 45 44 59 56 56 58 62 71 74 78 81 85 87 91 95 99 104 103 110 119 123 126 135 140 148 142 133 127 119 116 111 109 106 103 97 91 85 79 74 69 65 63 61
50 51 50 61 61 62 63 67 72 77 82 88 94 95 96 99 103 105 110 120 126 128 140 147 147 143 133 123 119 114 111 110 108 101 96 91 86 80 74 69 66 62 60 56
57 56 56 61 64 68 71 74 78 82 89 93 97 101 104 108 110 115 121 126 132 138 150 150 141 133 124 117 112 111 110 106 99 93 89 83 79 73 69 66 61 57 55 51
60 61 63 67 70 76 80 80 87 90 94 100 103 107 110 113 116 123 125 131 138 146 150 143 134 125 118 114 112 110 103 95 89 85 80 76 72 68 64 59 56 54 52 50
64 66 72 74 77 84 87 89 93 99 102 107 112 113 115 122 129 130 133 136 144 151 149 131 122 118 114 114 111 103 94 89 84 80 74 70 65 61 59 56 54 52 51 49
68 73 78 83 87 91 94 99 104 108 109 113 116 124 128 131 133 135 139 147 152 146 130 121 115 112 110 108 100 93 88 83 78 74 70 64 60 56 54 53 52 50 50 48
77 81 84 89 93 98 103 106 108 112 115 121 124 128 132 135 138 140 146 154 143 129 121 115 110 110 105 97 91 87 82 77 74 70 65 62 58 55 53 51 50 51 49 47
86 93 96 97 99 102 105 109 113 119 123 130 136 134 136 138 141 147 152 140 127 120 113 110 108 103 96 91 87 82 78 73 68 65 62 58 56 56 51 49 48 48 45 44
94 96 101 104 108 111 115 120 125 128 134 133 133 138 143 140 145 152 138 123 117 110 108 106 102 95 90 85 82 77 71 68 65 61 58 55 54 54 53 49 44 44 41 37
103 106 109 113 117 121 125 128 131 132 136 141 139 142 146 151 143 141 118 115 113 110 106 100 93 88 84 81 75 69 66 64 61 57 55 54 53 52 49 47 45 39 36 33
111 115 118 120 125 129 131 134 135 143 147 145 150 153 148 135 122 114 113 112 109 103 97 91 85 82 78 73 68 64 63 60 56 54 53 53 51 50 46 43 40 37 33 30
121 120 125 131 131 134 141 145 147 149 151 142 130 124 120 112 111 108 107 103 100 95 88 83 80 75 71 66 62 61 59 56 53 52 52 52 49 46 44 41 38 34 31 29
127 131 135 137 141 147 143 141 138 130 121 118 108 106 106 105 106 106 100 94 89 86 82 78 74 69 64 60 60 58 55 53 51 50 50 49 47 44 42 39 36 33 30 26
134 138 142 144 141 136 135 133 122 113 108 105 102 104 103 103 100 96 90 85 81 79 75 71 66 62 60 58 56 55 52 50 50 49 48 47 44 42 40 38 35 32 28 24
135 133 133 132 129 122 113 106 103 101 102 102 101 101 99 94 86 83 80 77 75 72 67 63 60 58 57 55 53 51 49 49 48 48 45 45 42 40 38 36 33 30 26 24
134 131 124 120 111 103 99 100 100 100 102 101 96 94 88 84 81 77 74 71 67 64 61 58 57 56 53 51 49 47 47 48 48 46 44 42 41 37 35 34 31 28 25 24
123 117 110 105 100 102 101 99 99 99 98 95 89 84 80 77 73 71 67 63 60 60 58 57 54 51 49 48 47 46 46 47 46 45 42 40 39 37 32 31 29 27 24 24
112 109 104 102 100 99 100 101 99 95 90 85 81 77 72 70 67 64 61 60 59 58 56 52 50 48 47 46 46 46 46 46 45 43 41 39 38 36 32 29 28 26 25 24
105 102 101 101 99 98 97 95 92 86 79 76 73 70 67 64 62 60 59 58 56 54 51 49 47 46 46 46 46 46 45 45 43 42 40 38 37 35 33 30 27 27 26 26
100 100 100 99 96 92 88 86 81 74 70 68 66 63 61 60 59 58 56 54 53 51 49 48 47 46 46 46 46 45 45 44 43 42 40 37 34 33 32 30 28 27 27 26
98 96 94 91 86 81 78 74 71 67 65 63 61 59 59 58 57 55 54 51 50 49 48 47 46 45 45 45 45 45 44 44 43 40 37 34 33 32 31 28 28 27 26 26
92 89 86 82 76 72 69 66 65 64 62 60 59 58 57 55 54 52 50 49 48 47 46 45 44 44 45 45 45 45 45 44 41 37 35 33 33 32 30 28 27 26 27 25
85 81 77 72 69 65 63 59 59 59 58 57 56 55 53 51 50 49 48 47 47 46 44 43 43 44 44 44 44 44 43 41 40 37 33 32 32 32 30 29 27 27 26 26

GFSNGP_250_spd_015.txt.gz
Wind_Speed
29 29 30 32 34 34 33 37 39 40 43 48 52 58 62 66 69 72 75 79 83 89 93 97 99 101 106 113 118 124 128 136 142 128 119 113 108 104 103 100 97 92 86 81
35 32 34 38 37 38 39 41 42 45 50 55 58 62 68 71 73 78 83 86 90 97 101 102 106 109 113 119 126 130 135 137 129 118 111 103 99 99 98 93 88 84 79 74
34 36 40 45 42 43 45 48 50 53 58 61 65 69 74 77 82 86 92 97 99 103 108 111 112 117 120 127 130 133 134 126 116 108 103 99 95 91 88 85 80 76 73 69
38 38 42 48 43 46 48 55 55 58 61 66 71 75 80 86 89 94 98 102 106 111 114 118 123 124 127 130 132 128 126 116 107 105 101 97 92 87 82 76 73 70 67 63
39 39 43 51 49 51 55 57 60 64 69 74 77 82 89 92 95 99 103 107 114 116 121 125 126 131 131 132 125 120 111 108 105 102 99 93 88 82 77 73 69 66 62 58
43 43 47 52 53 58 61 63 70 73 74 77 84 87 92 97 103 106 112 117 120 125 127 132 136 134 133 125 118 108 105 105 102 98 93 87 83 78 73 70 66 62 60 55
47 50 55 59 62 66 69 72 74 76 81 87 93 98 103 106 110 117 121 124 128 133 137 138 136 130 122 115 107 104 102 100 94 88 84 80 76 72 69 65 62 60 57 52
54 61 64 66 68 73 76 74 80 86 91 96 99 102 109 114 119 124 126 130 138 136 137 133 124 117 111 104 103 103 101 94 88 83 79 74 70 66 63 60 59 55 53 48
60 66 70 72 76 78 80 84 87 94 97 101 107 113 116 119 127 130 134 138 136 133 133 121 113 107 103 102 102 99 93 88 84 80 74 70 66 63 60 57 53 51 48 46
65 72 75 79 81 85 88 92 96 103 109 112 117 118 121 129 134 136 135 131 127 122 113 107 105 105 103 100 96 92 86 83 79 74 71 67 62 59 55 53 50 49 46 44
74 79 80 85 88 92 96 103 106 110 114 116 118 124 130 132 133 129 125 120 113 106 103 104 103 103 101 96 91 86 83 78 74 71 67 63 60 55 52 50 48 48 46 43
80 84 86 89 95 100 105 107 115 115 118 125 127 129 129 130 122 119 112 105 101 101 101 101 101 100 95 88 85 82 79 74 70 66 62 59 57 56 49 47 46 45 41 40
84 88 92 97 99 107 112 115 115 123 125 128 126 127 125 117 111 106 102 100 100 100 100 99 95 92 88 84 81 77 74 69 65 63 58 57 55 53 53 48 42 42 39 37
92 99 102 106 108 112 118 122 125 127 123 126 122 119 112 111 107 104 102 102 100 100 99 94 89 86 82 79 76 72 68 65 62 59 56 55 53 52 50 47 44 38 36 34
101 105 109 113 119 123 126 127 123 123 122 121 118 113 110 108 106 102 100 102 102 99 94 88 83 80 76 73 69 66 64 62 59 55 53 53 51 50 48 44 40 37 35 33
108 111 116 122 123 125 126 127 120 119 121 115 112 110 107 105 103 102 100 99 97 92 87 81 77 74 70 67 64 62 61 58 54 52 51 51 50 48 46 42 40 38 35 32
115 120 123 121 123 125 126 122 120 117 112 109 107 106 104 102 102 100 98 92 87 82 78 74 71 68 65 63 61 60 57 53 50 50 50 50 49 47 45 43 40 38 35 31
123 119 121 122 119 117 116 116 113 111 109 107 106 104 104 102 96 92 89 84 79 74 71 68 66 64 62 60 58 54 52 49 49 49 48 48 47 45 44 42 39 37 34 30
118 121 121 118 115 113 113 109 107 108 109 107 104 103 99 96 89 86 82 77 72 68 65 63 62 60 58 55 53 51 49 48 48 48 46 45 45 43 43 42 39 35 32 28
122 120 116 113 109 111 109 109 109 107 107 104 101 98 93 89 85 80 75 70 66 64 62 60 58 55 54 52 50 48 47 47 47 46 45 44 43 42 42 41 38 35 31 27
116 114 112 110 106 109 110 109 107 105 103 99 96 91 86 81 77 73 69 65 63 61 59 57 55 53 52 50 49 48 47 45 45 45 44 43 43 42 41 39 37 34 31 28
114 112 108 107 106 105 106 104 104 101 97 92 87 83 78 74 70 67 64 62 60 58 57 55 53 51 50 49 48 46 44 43 44 44 43 42 42 40 39 38 36 33 30 28
111 108 105 105 103 100 99 100 97 93 88 81 77 75 72 68 65 63 61 59 58 55 54 52 50 49 47 46 45 43 43 43 42 42 42 41 40 38 38 37 35 32 29 28
107 104 102 100 98 96 94 91 88 85 79 74 70 69 66 64 62 60 58 56 54 53 51 49 48 46 45 44 44 43 42 41 42 42 41 40 39 38 37 36 33 31 29 27
101 98 97 96 92 89 85 80 80 75 72 69 65 64 62 60 58 57 54 52 51 49 48 46 45 45 44 44 42 42 42 41 41 41 40 40 38 36 36 34 32 30 28 27
95 93 90 89 85 79 75 70 70 68 66 65 62 60 59 57 55 53 51 50 48 47 45 45 44 43 42 42 42 42 42 42 41 41 39 38 36 35 35 34 31 29 28 27
87 85 84 80 76 72 69 65 64 63 60 60 59 58 56 54 51 49 47 46 46 46 45 44 42 41 41 41 42 41 42 42 41 40 38 36 35 35 35 33 31 29 28 28

GFSNGP_250_spd_021.txt.gz
Wind_Speed
31 34 37 34 33 35 36 38 37 43 45 46 46 50 52 54 59 64 68 73 78 82 86 91 95 102 108 115 121 126 132 134 135 128 123 119 118 114 112 108 106 105 103 99
39 39 42 43 41 39 39 39 40 43 46 49 49 52 57 59 66 70 74 77 82 86 91 96 102 109 116 124 132 137 137 130 121 116 113 113 112 108 106 106 103 99 93 87
39 42 47 44 42 42 41 41 45 46 47 49 53 57 62 65 72 74 77 82 87 95 101 107 112 120 122 130 136 128 121 114 110 110 110 109 107 106 104 99 94 88 84 79
42 43 49 44 43 45 48 44 44 45 48 53 58 63 68 71 75 78 83 88 96 103 109 114 121 126 129 132 126 120 115 107 108 108 106 104 103 100 95 89 84 79 74 70
46 45 47 46 45 45 43 45 49 51 54 59 63 68 75 76 81 85 90 98 104 111 115 122 128 131 131 127 121 116 112 111 109 105 104 101 95 89 84 80 76 72 67 63
47 49 47 46 42 47 46 49 53 58 63 66 69 72 78 85 88 93 101 106 109 115 122 126 131 130 126 119 115 111 107 105 105 102 97 95 87 81 77 73 69 66 63 59
53 52 51 48 50 52 54 56 58 64 69 73 78 81 82 88 95 100 105 111 116 123 127 132 130 124 118 112 112 109 107 103 100 96 89 84 79 73 70 66 64 62 60 57
58 60 55 52 53 54 59 61 65 69 74 78 80 85 91 97 101 108 114 121 127 130 131 128 124 119 114 111 110 106 103 99 95 91 83 76 71 68 65 63 62 59 55 51
63 65 61 59 59 61 63 67 72 75 77 82 88 94 100 106 110 118 124 127 128 128 128 126 120 116 111 107 105 102 97 93 87 81 76 70 66 65 63 62 59 55 51 49
66 67 65 64 67 67 70 75 78 82 87 92 96 101 107 112 120 123 124 126 128 129 126 121 116 111 105 102 100 94 88 83 79 73 69 66 64 62 59 58 54 51 49 47
67 67 66 68 71 73 78 80 84 90 95 101 104 110 115 117 122 124 128 129 129 129 122 115 111 106 102 97 90 85 80 76 71 68 65 64 61 59 56 52 50 49 49 45
69 68 71 72 76 80 84 89 93 98 102 106 110 114 119 124 127 130 130 130 129 126 118 109 104 98 93 87 82 77 73 70 67 64 62 61 58 55 53 50 47 45 45 43
71 72 75 76 82 88 92 95 99 104 107 111 115 118 124 132 128 129 130 128 127 122 112 103 96 90 85 79 75 71 68 66 64 61 59 56 54 52 49 47 47 47 43 41
75 76 79 84 89 93 97 100 103 107 112 117 120 123 128 129 130 129 128 126 120 111 102 96 90 84 80 75 71 68 66 64 61 58 55 53 51 49 47 46 44 42 42 39
80 85 88 91 93 97 99 104 109 112 115 121 124 126 129 131 129 127 125 120 111 101 95 89 84 78 74 70 68 65 63 60 57 54 52 50 48 47 45 44 43 41 38 37
86 89 92 94 99 102 105 110 112 118 123 121 123 126 128 128 127 123 119 110 101 94 89 84 78 74 70 68 65 62 59 56 54 52 50 47 45 45 44 43 42 40 38 35
90 94 97 100 103 106 112 117 120 122 119 122 127 125 123 124 120 113 107 101 93 88 82 77 73 70 67 64 62 58 56 54 51 49 48 46 45 44 44 42 41 39 36 33
95 98 101 104 108 112 118 122 121 120 122 123 122 120 119 117 108 102 98 92 87 82 76 73 69 67 64 61 58 56 53 51 49 47 47 46 45 43 42 41 39 37 35 32
100 103 105 110 114 118 121 120 118 120 120 120 117 114 112 107 100 95 91 87 81 77 73 69 66 64 61 58 56 53 51 48 48 47 46 45 44 42 41 40 38 36 33 31
107 107 113 116 120 120 118 117 117 116 118 115 111 106 102 100 95 90 86 82 76 72 69 66 63 60 58 56 53 51 50 49 48 46 44 44 43 40 39 38 37 35 32 30
112 116 119 121 117 117 117 117 114 115 112 108 102 99 98 94 91 86 79 76 73 68 66 63 60 58 56 54 51 51 50 48 46 44 44 42 40 40 39 38 36 34 32 30
118 117 117 115 114 113 114 113 111 109 105 100 98 95 93 90 85 81 74 70 67 65 63 60 58 55 53 52 53 51 47 46 45 45 43 41 39 38 38 37 36 35 34 31
113 114 114 114 112 113 112 110 105 102 97 96 95 91 88 85 78 74 72 69 65 62 60 58 55 53 52 52 50 48 47 46 46 44 43 41 39 38 38 37 36 35 34 32
113 112 112 112 110 108 104 101 96 95 94 93 89 86 80 77 76 70 66 63 61 60 58 55 53 53 52 50 48 47 47 46 44 44 43 41 40 39 39 38 37 36 34 32
110 110 107 105 103 100 95 93 93 92 90 87 84 80 75 71 67 67 64 59 57 56 53 53 53 52 49 48 48 48 48 46 44 42 41 40 39 40 39 37 36 35 34 32
106 105 104 100 96 93 91 90 89 86 82 79 79 73 69 67 64 62 58 56 55 53 53 52 51 50 49 49 50 49 47 45 43 41 40 39 39 40 38 36 35 34 33 31
102 99 95 93 90 88 87 85 82 79 76 73 71 68 64 63 60 57 55 53 52 51 51 51 50 50 50 50 48 46 44 41 40 40 40 40 40 40 38 36 35 33 32 31

GFSNGP_250_spd_024.txt.gz
Wind_Speed
26 29 31 36 36 38 39 41 38 43 41 42 45 48 51 50 54 57 62 66 71 77 83 87 91 96 102 107 115 122 129 132 136 131 129 124 114 111 110 109 109 108 105 101
32 34 36 38 41 42 43 44 44 43 45 47 48 48 50 52 57 63 68 73 78 82 85 91 96 103 109 114 122 130 131 131 130 127 124 117 112 109 108 106 104 100 95 90
39 40 41 41 44 46 47 47 45 47 48 47 45 50 53 56 64 68 72 77 82 86 92 97 105 111 118 123 131 135 133 130 127 114 117 112 106 105 104 99 95 91 86 81
43 45 48 43 46 45 48 49 48 47 47 47 50 55 58 61 67 73 79 83 87 92 98 104 110 116 123 131 136 135 132 128 124 113 100 105 100 98 97 90 85 81 76 73
48 48 48 48 46 52 51 56 51 53 53 52 56 58 65 68 73 77 83 89 95 102 107 111 116 125 129 133 134 133 127 123 120 109 104 99 93 87 87 82 78 75 71 67
51 50 50 53 50 52 55 57 55 56 58 59 61 64 71 76 81 87 92 98 104 109 114 121 128 130 134 136 134 129 122 118 109 107 103 95 90 83 78 75 72 69 67 63
52 53 55 56 58 61 62 61 59 60 60 64 67 72 76 82 87 92 98 104 109 115 121 127 131 134 136 138 130 126 118 110 105 101 96 91 84 78 73 70 67 65 62 59
58 60 59 60 63 64 67 65 63 64 66 68 73 78 83 89 94 98 103 110 116 119 127 130 134 136 138 134 124 116 108 104 99 94 88 83 77 73 69 65 63 59 57 54
62 66 67 65 66 68 67 65 64 66 70 74 80 85 90 94 98 104 111 115 120 126 130 133 136 139 136 125 115 106 100 95 89 84 80 73 71 68 65 62 59 56 54 52
60 66 67 68 71 70 68 68 69 73 78 83 86 91 94 99 105 112 115 120 127 128 131 135 138 135 128 117 105 98 92 85 80 76 72 69 66 64 61 58 55 52 51 51
65 68 70 69 70 71 70 71 75 80 85 88 91 94 100 106 111 115 119 127 129 130 132 137 135 129 119 107 98 92 85 79 75 71 69 65 62 61 57 54 52 50 49 48
68 68 70 70 72 73 74 77 80 85 89 91 95 100 106 110 115 120 126 131 130 131 136 137 133 121 108 99 92 85 80 75 71 68 65 62 60 57 55 53 51 49 47 44
73 69 69 70 72 76 79 82 87 90 92 95 100 106 111 114 119 124 130 133 132 135 137 134 124 109 98 92 86 80 75 70 67 65 62 59 57 54 52 51 50 48 46 44
72 72 73 77 79 82 86 90 92 94 97 102 106 111 114 120 125 131 132 132 132 135 133 126 111 98 91 86 81 75 70 67 64 61 58 56 53 51 50 48 47 46 45 43
75 76 78 83 86 90 93 96 98 99 103 106 111 116 122 127 130 132 132 130 132 132 125 111 98 91 86 81 75 70 67 64 61 58 54 52 51 50 48 46 44 43 42 41
80 83 86 91 93 95 99 102 104 105 109 112 118 123 129 130 131 130 132 132 131 125 110 96 90 85 81 75 71 68 65 61 58 54 51 50 50 48 45 44 44 43 40 39
88 91 94 96 98 102 104 106 108 112 117 119 124 128 127 127 127 131 131 127 121 110 97 88 84 80 76 72 68 65 62 58 54 53 51 49 47 45 45 44 43 43 41 37
96 98 100 102 102 106 109 112 114 119 122 125 127 126 124 125 128 126 121 114 105 95 89 84 79 76 73 68 65 63 59 55 53 53 49 46 45 45 45 44 42 41 39 37
103 105 105 107 109 112 115 120 123 125 126 125 122 123 125 125 122 116 108 101 91 87 84 80 76 73 70 65 63 60 56 54 53 50 47 46 46 45 44 43 42 39 38 36
106 107 110 113 115 119 121 124 121 116 117 119 119 121 120 116 110 103 97 90 86 84 78 76 72 70 66 63 60 57 55 54 51 49 47 47 46 44 43 41 41 40 38 37
113 115 117 118 121 121 118 118 119 119 117 116 118 114 110 103 98 94 88 84 83 81 76 73 69 67 64 60 57 55 54 52 50 48 48 47 45 43 42 40 39 41 40 38
118 119 119 117 113 116 118 119 116 112 114 114 110 106 99 95 90 87 85 80 78 75 72 69 67 64 61 57 56 54 52 51 50 49 48 47 45 43 41 41 40 40 41 39
111 109 111 115 116 114 112 109 109 108 105 103 100 96 91 86 84 79 78 77 73 71 68 66 63 61 58 56 54 53 52 51 51 49 47 45 43 42 42 42 41 41 38 38
114 112 107 104 104 104 106 108 102 102 99 97 94 91 87 81 80 78 73 70 68 67 65 63 61 58 56 54 52 52 52 52 50 48 46 44 44 44 43 43 42 41 39 37
104 105 108 112 112 109 103 101 99 95 92 89 86 83 79 76 71 70 69 66 64 64 62 60 58 56 55 52 52 53 53 50 48 46 45 44 44 44 44 43 42 41 39 38
110 111 111 110 108 105 101 93 88 87 85 82 79 77 75 72 69 66 64 63 63 60 59 57 56 54 52 52 52 51 50 48 46 45 44 43 43 43 43 43 42 41 40 38
110 109 107 106 105 98 91 87 85 83 81 75 74 73 71 68 66 64 63 61 60 58 55 54 53 52 51 52 52 50 46 45 44 43 43 44 43 42 42 43 42 41 40 38

GFSNGP_250_spd_030.txt.gz
Wind_Speed
18 20 23 27 31 34 37 40 42 45 46 48 50 51 52 54 56 58 59 61 60 60 60 64 68 72 80 88 95 100 107 112 116 122 126 128 128 126 123 117 106 98 94 89
22 24 29 33 36 38 40 46 48 50 52 52 53 56 57 59 60 61 63 63 61 62 64 70 75 81 88 95 100 106 112 118 124 130 134 129 122 118 113 105 99 92 87 83
26 28 33 36 37 41 45 50 55 59 58 56 58 60 63 64 63 63 64 61 62 64 69 75 81 87 95 100 105 110 114 121 129 132 130 124 120 115 109 99 93 88 83 80
30 31 32 37 43 45 49 52 55 59 60 59 59 60 62 65 65 63 62 63 66 71 76 82 89 95 101 107 111 116 122 127 130 127 125 125 119 108 99 93 88 82 77 74
29 34 38 42 46 50 54 59 58 62 64 63 62 62 63 65 65 64 65 68 72 78 84 90 96 102 108 113 117 124 127 130 130 129 125 119 109 98 91 86 82 77 73 70
38 41 45 48 53 56 59 63 65 69 70 67 66 66 66 66 66 67 70 74 80 87 93 99 103 109 113 119 126 131 132 131 128 126 119 110 100 92 86 81 78 73 70 66
47 49 51 53 56 60 63 63 67 73 71 67 66 67 69 71 72 75 78 83 88 94 100 104 109 113 119 125 127 129 129 128 128 119 111 103 95 88 81 77 72 68 64 61
53 55 55 61 63 66 67 69 74 75 69 66 66 69 72 74 77 80 85 90 97 101 107 110 115 120 126 127 129 129 131 132 122 117 106 98 90 83 77 73 69 66 61 58
58 62 64 66 66 68 71 73 76 75 70 69 71 73 76 79 82 87 92 98 102 107 110 114 121 127 127 127 129 133 131 122 117 107 99 92 84 78 73 69 65 61 59 58
64 66 67 69 70 73 75 75 79 75 72 74 76 76 79 83 88 95 100 104 109 112 118 122 127 129 127 127 130 125 123 118 107 100 93 85 79 74 69 66 62 60 59 55
67 67 68 70 73 76 77 79 76 74 76 78 80 83 87 92 97 100 105 109 113 118 123 127 126 125 128 130 124 123 117 108 99 93 86 80 75 70 66 62 60 58 54 51
69 72 73 76 77 75 75 74 75 79 81 83 86 90 94 98 102 107 111 113 117 123 127 129 125 127 130 124 120 116 109 98 93 85 80 76 71 66 62 60 58 54 51 49
74 78 79 81 79 81 80 79 82 84 87 89 94 98 101 104 109 113 116 120 122 129 131 126 129 127 120 117 111 103 96 91 85 80 75 71 67 62 59 57 54 51 49 48
81 81 84 82 83 83 83 85 86 89 92 96 100 103 106 111 115 119 120 126 130 127 125 128 125 120 114 107 98 93 89 84 79 75 71 67 63 60 58 55 52 49 49 47
82 83 84 84 84 85 87 89 92 96 100 104 107 110 113 118 121 123 127 128 122 124 128 121 117 110 104 96 92 88 83 79 75 71 67 64 60 57 56 53 52 51 49 46
84 84 86 86 88 89 92 96 100 103 107 108 111 116 122 124 125 127 125 123 121 127 121 111 107 100 92 89 86 82 78 75 71 67 63 60 57 55 53 52 51 49 46 43
85 85 88 90 92 95 100 102 105 108 111 114 119 122 126 127 124 121 122 125 125 120 107 101 95 89 87 84 80 78 74 70 67 63 60 58 54 53 52 52 49 45 42 39
90 92 93 95 98 103 106 109 112 115 119 121 123 126 123 121 116 118 121 119 109 102 98 91 86 85 83 80 77 73 69 65 63 59 57 54 52 51 51 50 46 42 39 38
93 97 99 103 106 109 112 115 118 121 126 126 127 121 122 118 113 117 110 103 95 88 88 85 83 82 80 76 71 67 64 61 58 56 54 52 50 51 50 47 43 41 39 37
100 104 107 110 113 116 120 123 125 125 125 121 118 114 112 114 114 109 101 93 85 82 82 79 79 77 74 69 64 62 61 58 55 53 52 50 50 51 48 43 41 40 39 38
109 112 115 119 123 126 126 123 121 120 117 116 114 111 110 104 97 95 87 82 82 81 80 76 74 71 67 64 61 58 56 54 53 51 50 49 50 49 44 41 40 39 39 38
119 122 124 124 121 119 121 117 111 111 111 112 109 98 94 93 88 85 85 79 79 79 77 73 71 66 64 62 58 54 52 51 50 49 49 49 49 46 42 39 39 39 39 39
119 117 115 113 113 112 110 109 109 107 100 95 96 92 87 85 82 77 79 80 78 77 74 70 66 64 61 58 55 52 50 49 48 47 48 49 47 44 41 40 39 39 39 39
112 109 110 108 109 108 111 111 106 102 95 90 91 85 82 80 81 77 77 75 75 72 69 64 62 60 58 56 52 50 49 48 48 47 47 47 45 43 41 40 39 38 37 38
113 115 117 114 114 102 93 92 93 95 92 89 86 82 79 77 75 76 75 73 71 67 64 61 58 56 55 53 50 49 48 47 46 47 46 45 43 41 40 40 39 39 38 37
116 115 110 103 102 101 99 96 89 90 88 85 84 81 79 76 74 72 70 68 65 62 60 58 56 53 52 50 49 48 48 48 47 46 45 43 41 40 40 40 40 39 39 38
102 102 102 99 101 97 91 88 84 82 81 78 78 78 75 74 73 70 66 64 62 60 59 57 54 52 51 50 49 47 47 46 45 45 44 42 41 40 41 41 40 39 38 37

GFSNGP_250_spd_033.txt.gz
Wind_Speed
21 21 21 22 24 27 30 31 34 39 44 46 50 53 56 57 58 57 57 58 60 59 59 59 61 64 69 75 81 88 95 101 109 114 119 123 129 122 120 117 110 107 102 99
23 23 25 27 29 29 31 35 38 42 47 51 54 56 59 63 60 58 58 60 61 60 60 63 67 73 77 84 90 98 102 109 114 119 125 128 122 120 116 113 110 106 100 93
26 25 27 31 31 31 37 42 44 48 52 55 58 60 64 66 61 59 60 61 62 64 66 70 76 81 87 93 99 104 109 113 118 125 125 122 125 125 117 110 108 100 92 86
27 28 28 30 35 38 43 49 51 55 58 61 60 64 67 65 60 58 61 64 68 71 74 78 82 88 94 100 105 110 114 119 125 129 130 127 126 119 114 110 101 92 86 81
27 29 28 38 42 45 49 52 56 61 63 63 64 66 68 66 61 62 65 69 72 75 80 84 90 96 101 107 112 116 119 127 129 127 123 124 120 117 113 103 94 87 82 76
30 33 37 43 48 51 53 56 62 63 65 67 70 72 71 69 66 69 72 76 79 82 86 92 97 102 108 113 119 123 126 126 124 122 124 121 117 112 104 95 88 82 76 71
35 36 39 49 53 55 58 62 64 66 68 71 73 73 71 70 71 75 79 83 85 89 94 97 102 108 113 119 124 126 125 126 125 125 126 117 114 105 96 88 83 77 71 67
39 43 45 54 55 58 64 65 66 69 72 76 77 76 75 77 78 82 85 87 91 96 100 104 109 114 121 124 126 124 125 126 125 128 122 115 108 98 90 83 77 71 67 63
46 50 54 57 60 65 67 68 69 72 75 79 80 79 80 81 83 86 89 93 98 102 106 110 116 120 127 123 123 123 126 128 127 121 115 108 98 90 83 78 71 66 63 59
53 59 64 65 69 70 68 70 72 77 78 82 82 82 82 83 85 89 94 100 104 109 113 117 122 127 124 124 126 125 128 126 118 114 108 99 91 84 78 72 66 63 61 58
59 65 67 72 73 73 73 74 77 80 83 84 82 83 84 87 90 95 101 105 109 114 121 123 126 127 124 127 126 124 126 119 115 108 99 91 84 78 72 67 63 60 58 55
66 71 73 76 78 77 77 78 82 84 86 84 85 87 90 93 96 101 106 110 116 120 124 129 128 128 127 126 122 123 123 117 108 99 90 83 78 73 68 64 60 58 55 53
71 75 75 76 76 77 78 82 85 86 86 87 89 93 96 99 103 108 112 116 121 126 128 128 126 127 125 123 123 119 114 106 98 90 84 78 73 67 63 60 58 56 53 52
77 78 77 79 79 81 84 87 88 88 90 92 95 97 101 106 110 115 118 123 126 128 125 123 126 125 125 123 114 108 102 96 89 83 78 73 68 64 60 56 53 52 51 51
79 77 79 80 83 85 88 89 89 91 94 96 100 104 107 112 117 121 126 126 127 123 122 124 124 123 119 111 108 100 93 88 82 77 72 68 65 61 57 54 52 49 49 48
78 81 81 85 87 88 89 91 94 97 100 104 107 111 115 119 123 126 125 121 119 120 120 124 122 114 109 103 96 90 85 80 77 72 68 65 61 58 54 52 50 49 48 46
80 83 84 85 87 91 94 96 100 103 107 111 115 119 125 127 124 119 118 118 119 119 119 119 114 109 99 93 88 84 79 75 71 68 65 62 58 54 51 49 48 48 46 43
85 86 88 90 93 97 100 104 107 111 115 119 125 127 123 119 117 116 116 118 119 120 115 112 104 95 89 86 83 78 75 70 68 65 62 58 54 50 48 47 46 46 43 40
87 90 93 97 100 103 107 110 115 120 124 126 128 126 123 120 118 119 119 119 117 108 105 98 91 87 85 81 78 75 70 67 65 62 60 55 51 48 47 45 45 44 41 39
92 96 100 104 108 112 116 120 124 128 127 124 122 120 123 120 115 112 109 106 107 98 91 86 83 82 79 76 74 70 66 64 63 60 57 52 49 47 46 45 44 42 39 38
101 106 110 114 119 122 123 126 126 123 121 117 117 119 119 115 108 99 100 94 93 88 84 82 79 77 75 73 69 65 63 62 59 57 54 51 49 47 46 45 43 41 39 38
112 115 118 121 124 127 128 125 123 119 119 121 118 109 103 99 97 92 92 87 84 83 80 77 75 73 72 69 65 63 61 58 56 54 53 50 49 47 46 45 43 40 38 37
119 122 125 126 125 121 120 117 115 119 113 108 103 99 94 89 89 87 84 85 81 78 75 74 73 72 70 66 62 61 59 56 54 52 51 49 48 47 46 44 42 40 38 37
123 120 116 115 115 113 113 114 109 106 103 101 97 92 88 86 86 83 79 77 76 74 72 71 70 68 66 64 61 59 57 56 54 52 50 49 47 46 45 44 41 39 38 38
114 112 111 115 116 117 114 106 104 104 100 97 96 92 87 84 79 78 76 73 71 71 70 68 67 65 63 62 59 57 57 56 54 52 50 49 47 46 45 43 41 39 39 38
115 113 114 109 105 104 104 102 98 95 92 90 88 86 82 78 74 73 71 70 69 69 67 65 63 62 61 60 58 56 56 54 52 51 50 48 47 46 44 42 41 39 39 38
113 115 111 107 107 104 98 93 88 86 82 78 76 77 75 74 73 71 69 68 67 66 64 63 61 60 59 58 56 54 53 53 51 50 48 47 46 44 42 41 40 39 39 38

GFSNGP_250_spd_036.txt.gz
Wind_Speed
15 16 18 21 24 25 27 29 31 32 35 39 42 47 50 51 52 55 59 59 54 51 51 53 56 60 64 68 75 82 88 94 100 106 109 116 118 120 122 122 121 120 114 106
19 20 22 25 27 28 30 31 31 36 41 44 49 54 56 57 56 61 61 60 58 54 55 59 64 68 73 79 86 91 96 102 107 111 118 121 122 122 123 121 119 115 107 101
24 23 24 30 30 31 30 31 36 41 44 48 53 58 60 61 62 65 67 65 63 63 65 69 73 77 82 89 94 98 103 109 113 117 121 124 123 125 122 118 118 111 102 97
28 28 25 33 35 31 31 38 43 45 50 52 59 61 63 65 67 69 71 71 71 70 72 76 80 84 89 94 100 105 109 113 118 122 123 125 125 122 121 117 112 104 99 94
29 31 28 35 36 36 38 42 49 52 54 57 64 67 68 68 71 73 75 77 75 75 78 81 85 89 94 101 106 111 114 119 123 124 124 123 122 121 117 113 105 98 94 89
33 31 29 36 40 40 41 44 53 58 61 64 69 70 73 73 75 77 79 81 80 81 83 86 91 95 101 107 112 116 120 123 125 124 125 122 120 118 110 106 100 95 89 83
34 32 34 41 43 44 46 51 57 62 64 70 71 73 75 76 78 81 83 83 83 85 88 91 96 102 106 112 117 120 125 123 122 122 122 123 119 111 107 102 95 90 83 77
41 42 40 45 47 50 53 59 63 66 71 74 77 79 77 77 81 84 86 86 87 90 94 98 102 107 112 118 122 123 123 121 120 122 120 119 115 111 102 97 91 84 77 71
48 49 48 47 50 54 62 66 68 72 75 79 80 78 78 80 83 88 89 89 91 95 98 103 108 113 119 122 121 120 119 120 121 120 120 115 114 104 98 92 85 77 71 67
52 54 54 52 59 64 68 70 74 77 80 81 82 81 82 85 89 92 92 93 96 99 104 111 116 120 123 120 120 118 120 121 121 121 117 113 105 100 93 86 78 71 68 64
52 55 57 64 69 71 73 75 77 81 83 85 83 83 87 91 93 92 94 97 101 106 112 117 122 124 123 119 119 118 122 121 120 117 112 106 100 93 87 80 73 68 65 61
55 64 66 70 73 75 77 80 84 86 86 85 87 89 93 94 93 95 98 103 108 113 118 124 126 124 120 120 119 119 117 115 116 112 108 101 93 87 80 73 69 65 62 58
65 67 71 75 76 79 82 86 87 87 87 89 91 95 95 95 96 100 105 109 115 120 125 126 122 117 120 119 118 117 114 112 112 108 101 93 86 81 73 68 67 62 60 56
70 73 76 79 82 86 88 87 88 90 93 94 96 96 96 98 103 106 111 117 122 125 126 123 120 120 122 119 118 114 113 111 106 100 93 87 81 74 68 65 62 61 57 53
77 79 81 83 85 86 87 90 93 95 96 95 96 97 101 105 110 114 119 124 128 129 126 119 120 121 120 116 114 112 109 104 99 92 86 81 75 69 66 63 60 56 53 51
80 82 83 85 87 89 91 94 95 96 96 96 100 103 108 112 119 123 126 130 131 126 123 121 122 123 118 113 112 108 102 97 91 85 80 75 70 67 64 61 58 54 51 49
83 84 86 88 91 94 95 95 95 96 100 103 108 113 117 121 126 129 132 130 124 120 120 121 123 114 110 105 102 98 92 88 83 79 75 71 66 64 62 59 56 53 50 48
86 87 88 90 92 94 94 96 98 102 106 111 116 120 124 127 131 133 127 122 120 119 121 117 110 106 104 100 95 90 86 81 78 74 70 66 64 62 59 56 54 52 49 47
88 89 91 92 94 96 99 103 107 111 115 119 122 126 128 132 127 123 122 122 120 115 115 112 105 100 96 92 88 85 82 77 74 70 66 63 62 58 56 54 53 51 49 46
90 92 95 97 100 103 107 110 115 119 122 125 128 132 130 125 119 119 120 113 111 105 104 101 94 90 87 85 82 79 76 73 70 67 63 62 60 56 54 53 51 50 48 46
95 98 101 104 108 112 116 120 123 125 127 130 130 126 121 121 121 118 120 109 104 100 96 92 87 84 82 79 77 75 73 70 67 64 62 59 57 54 52 52 51 50 48 46
104 107 110 113 117 120 122 124 126 128 125 118 119 119 118 117 113 108 105 98 92 91 90 85 82 80 77 75 73 72 69 66 64 62 61 58 55 53 51 50 50 49 48 46
114 117 119 122 123 125 126 124 118 115 115 117 119 115 107 103 98 94 91 92 89 86 84 81 78 76 74 71 69 68 66 64 62 60 59 57 53 51 50 49 48 47 46 44
120 120 118 117 115 113 110 111 111 112 112 106 105 103 100 94 94 93 87 82 79 78 76 75 73 72 70 68 66 64 63 62 60 59 56 54 51 50 49 48 48 46 45 42
114 112 111 113 111 110 109 109 104 103 104 104 101 98 95 89 82 79 79 78 76 74 72 71 70 68 66 65 63 61 61 59 57 56 54 51 50 49 47 46 46 45 43 41
111 114 114 112 110 106 104 104 102 98 94 92 91 88 85 83 81 78 75 73 71 69 68 67 66 65 64 62 61 59 57 56 54 53 53 51 49 47 46 45 44 42 40 40
109 108 106 102 100 96 93 92 88 87 85 81 78 79 78 77 75 73 71 70 68 67 65 65 64 63 61 60 59 56 55 53 51 51 50 50 47 46 46 44 41 40 39 39

GFSNGP_250_spd_039.txt.gz
Wind_Speed
12 12 13 14 17 19 20 23 25 27 30 25 32 37 41 44 47 52 56 59 60 62 64 66 67 68 69 69 71 75 79 84 89 96 102 107 109 110 113 115 117 118 117 113
16 15 17 19 24 23 25 28 28 30 32 32 37 41 45 49 53 57 61 63 66 69 70 72 73 75 77 77 78 82 85 91 97 103 109 110 112 115 116 115 119 117 114 108
19 20 20 25 29 27 29 31 32 31 35 38 43 47 52 55 58 62 66 70 73 74 74 75 77 80 83 82 83 87 92 98 104 111 113 114 114 115 115 115 114 115 108 101
23 24 24 32 35 34 33 35 33 36 39 42 48 52 58 62 64 68 71 74 76 77 77 80 82 85 87 85 87 92 98 103 111 114 116 114 117 116 115 115 114 109 104 96
27 30 30 35 39 39 38 38 39 42 44 47 52 57 63 66 69 72 75 78 81 81 82 84 87 89 88 89 93 99 103 110 116 116 117 116 115 116 115 111 107 106 100 93
33 33 34 40 43 42 41 40 45 49 50 53 57 62 67 71 74 77 80 82 84 86 87 89 93 91 90 94 100 104 111 116 119 119 117 114 114 114 112 107 107 100 94 91
36 37 39 42 42 44 46 47 50 52 53 58 63 67 72 75 78 81 85 87 88 91 92 94 94 92 95 100 105 111 116 121 121 118 115 113 114 114 111 107 101 95 91 87
40 42 40 42 45 48 51 54 56 58 61 64 68 73 77 79 82 86 90 92 92 94 96 96 95 97 100 106 111 117 122 125 121 115 112 113 115 112 107 102 97 93 87 82
46 46 45 46 50 55 56 58 59 64 67 70 75 79 82 84 87 91 94 93 94 97 98 96 97 101 106 112 118 122 126 121 115 114 114 115 112 108 104 98 92 88 82 77
47 49 51 53 55 56 58 60 64 67 72 75 79 83 85 89 93 95 94 95 98 99 98 99 102 107 113 119 123 127 121 115 117 116 116 112 107 103 101 94 89 83 78 71
48 52 51 56 58 63 67 69 71 73 76 80 84 87 90 94 95 95 98 100 99 99 100 104 109 114 120 124 127 119 117 115 116 112 111 110 105 102 95 89 84 78 72 67
50 54 58 63 67 70 72 73 75 79 83 86 90 93 95 95 95 98 100 101 100 101 105 110 116 120 124 126 120 116 118 117 112 108 107 104 100 94 88 83 78 74 68 64
59 63 66 66 70 72 74 77 80 84 88 92 95 96 97 97 101 102 101 100 103 107 111 117 121 124 125 123 118 118 117 115 113 109 102 98 93 88 84 78 74 70 64 61
67 69 72 74 75 77 80 84 88 92 95 95 95 96 99 102 102 101 103 106 110 114 118 122 126 127 125 121 120 119 115 111 114 107 99 93 88 83 77 73 70 64 62 59
73 75 76 77 80 84 88 91 94 96 96 97 98 100 100 101 103 106 109 113 118 122 125 127 129 125 117 117 115 114 110 108 103 99 94 88 82 78 73 69 65 60 59 57
74 78 81 85 88 91 94 95 95 96 98 99 99 100 103 105 109 112 116 121 125 129 130 130 125 120 115 113 116 110 107 103 97 92 86 82 77 74 70 65 61 58 56 54
82 84 87 90 93 93 94 96 98 98 98 99 102 106 109 112 117 121 125 127 132 132 129 120 119 117 116 117 112 109 101 94 89 83 79 76 73 70 66 62 58 56 53 52
89 91 91 93 96 95 95 95 96 99 103 105 108 112 117 121 125 128 130 130 129 121 118 117 118 114 111 109 104 98 91 85 81 78 75 72 70 67 63 60 56 54 52 50
91 93 93 92 92 94 96 100 103 106 109 112 116 120 123 127 125 122 122 123 123 122 120 119 111 109 105 98 91 85 81 78 76 75 71 69 66 63 60 57 55 52 50 48
90 90 92 95 98 101 104 107 110 112 115 120 123 124 125 127 123 119 120 124 122 114 109 108 105 98 92 87 82 79 77 75 73 71 68 64 61 60 57 55 53 51 47 45
91 95 98 102 104 107 110 114 117 120 123 125 125 123 117 117 119 122 120 114 110 108 104 97 91 86 83 81 78 76 73 70 68 66 63 60 57 56 56 53 50 49 47 45
98 102 105 108 111 114 117 119 121 123 123 122 116 114 117 118 113 108 108 103 96 93 89 86 82 80 78 76 74 72 69 66 63 61 59 56 55 54 53 51 49 47 44 43
105 108 112 115 118 119 117 117 117 116 114 113 115 115 111 109 106 98 93 93 88 85 81 80 78 77 75 72 70 67 64 61 59 57 56 55 53 51 51 49 47 47 45 42
114 115 116 116 115 113 113 112 112 112 113 111 109 106 101 95 92 90 84 81 80 78 76 75 73 71 70 68 65 63 61 58 56 55 54 52 50 49 49 48 45 44 44 43
115 114 114 114 113 110 111 112 110 108 106 101 99 98 94 90 84 81 81 79 76 74 71 69 66 65 65 63 61 60 58 57 54 53 51 51 49 47 46 46 45 43 42 41
112 111 110 110 111 111 108 105 102 98 95 93 91 88 84 83 81 79 76 73 71 69 67 65 63 62 61 60 59 57 56 55 53 50 49 47 47 46 45 45 44 42 39 38
112 112 109 105 102 100 97 96 94 91 86 81 79 79 78 77 75 73 71 69 67 66 64 62 61 59 59 58 55 53 51 50 49 48 46 45 45 45 44 42 41 40 38 37

GFSNGP_250_spd_045.txt.gz
Wind_Speed
23 24 25 24 23 22 24 25 25 26 26 29 28 32 36 39 42 44 46 48 52 56 59 64 69 72 76 79 83 85 88 92 93 92 91 92 96 95 96 101 105 109 115 120
26 26 26 24 26 27 27 25 26 30 31 32 35 35 39 42 45 48 49 53 56 60 64 68 71 76 80 83 84 87 92 95 95 93 94 97 97 99 103 107 111 117 121 120
29 28 26 28 30 27 28 30 30 32 36 37 40 43 45 47 50 52 54 57 59 64 70 74 77 81 81 84 88 92 96 97 95 95 98 98 101 105 108 112 118 121 121 115
30 28 27 33 31 32 32 34 34 37 40 41 44 47 49 51 54 55 56 60 63 69 74 77 81 83 85 89 91 96 98 96 96 98 99 102 106 110 114 119 122 121 116 114
31 30 32 35 36 35 35 39 39 43 46 48 49 52 53 55 57 58 62 67 72 76 77 80 83 86 89 91 96 98 96 96 98 99 103 107 110 114 119 122 118 112 115 112
34 34 35 37 39 40 41 43 45 50 51 51 53 54 58 58 60 62 66 72 74 76 79 83 87 89 93 97 99 96 97 99 101 105 108 111 114 119 118 116 113 109 109 108
37 38 39 40 41 43 46 48 50 52 52 55 58 59 60 60 62 67 71 74 76 80 84 88 90 94 98 98 96 98 100 102 106 110 113 116 118 119 117 114 112 110 108 105
39 40 40 43 44 46 48 49 50 52 55 58 59 60 62 63 68 73 76 78 82 86 88 91 95 98 97 96 97 99 103 107 111 115 118 119 117 117 113 113 112 106 103 102
41 41 42 42 44 45 48 51 54 56 59 59 60 60 66 70 74 77 80 84 88 91 93 97 98 97 97 98 101 106 109 113 117 118 117 117 115 113 113 113 108 104 98 92
44 43 44 45 47 50 52 54 56 57 60 61 63 67 71 76 78 81 85 89 90 94 99 99 97 97 99 103 107 112 116 120 121 123 121 116 114 114 112 108 103 99 94 89
45 45 47 45 49 50 51 54 58 59 63 67 72 74 77 81 84 87 89 92 97 99 97 97 98 100 104 108 112 116 119 121 120 114 115 117 115 112 107 103 99 95 90 85
44 45 47 46 50 55 58 61 63 64 70 75 78 80 84 88 89 92 95 98 98 98 99 102 104 108 111 116 118 121 118 116 114 116 116 114 111 106 102 100 95 88 82 78
46 51 54 56 59 62 65 66 69 74 79 80 83 87 90 92 94 100 101 101 100 101 103 106 111 115 118 121 122 116 116 116 117 114 110 106 105 103 97 93 87 84 80 76
56 59 60 64 65 68 71 74 78 82 83 86 89 92 93 97 102 103 102 102 103 105 109 112 116 120 120 119 118 118 116 115 113 109 107 105 102 97 89 83 81 79 76 72
62 66 66 68 71 74 78 81 84 87 88 90 90 94 101 103 102 102 103 104 108 112 115 118 119 120 118 118 117 113 111 111 109 108 105 99 93 88 84 80 77 74 71 67
65 67 70 74 78 81 83 84 86 88 89 91 98 102 102 102 102 104 107 111 116 120 121 120 121 117 115 114 113 112 111 108 104 100 95 90 86 83 80 76 72 70 67 63
69 73 76 79 83 84 86 87 89 90 95 102 104 104 104 105 106 109 115 119 122 123 123 118 116 114 115 115 111 108 103 100 95 89 85 83 81 78 74 70 68 65 63 60
75 77 81 84 86 88 89 91 94 101 104 104 105 106 107 109 113 118 122 124 123 121 119 115 113 112 111 110 106 100 96 92 88 84 80 77 74 72 69 66 65 62 59 57
79 82 83 85 88 90 94 99 103 104 105 105 107 109 112 116 120 123 123 122 119 114 114 113 111 108 103 101 96 91 87 84 82 79 75 73 69 67 65 63 61 59 57 54
82 84 87 90 94 98 101 104 103 104 107 109 111 116 120 122 123 122 119 116 112 108 107 108 105 102 98 93 90 87 83 79 76 74 71 68 66 64 62 59 59 58 55 53
86 90 95 98 101 101 101 103 106 109 112 117 119 121 122 121 118 115 114 112 111 108 107 104 99 93 89 86 83 81 77 75 73 70 68 65 62 62 61 59 57 54 53 51
93 96 97 98 100 102 104 107 112 116 119 120 119 118 116 116 114 110 110 109 107 105 100 94 90 86 82 79 75 74 72 70 68 66 64 63 62 60 59 57 54 52 49 48
91 93 96 100 103 107 111 114 115 115 116 115 115 114 114 113 110 109 111 108 103 96 90 85 85 79 75 72 70 68 66 65 64 64 63 61 60 57 55 54 53 51 50 47
96 100 104 107 109 110 110 111 111 110 111 112 113 113 110 107 110 107 103 95 91 87 84 78 77 74 71 68 66 64 63 62 62 62 60 57 56 54 54 53 51 50 48 46
104 105 105 106 107 106 106 106 107 108 110 112 111 108 106 107 104 97 91 88 85 82 79 75 72 70 68 66 63 62 61 60 58 56 55 54 52 51 50 49 48 47 46 45
101 102 103 105 104 104 105 108 111 113 112 111 108 105 103 97 92 88 86 83 80 77 74 72 70 68 66 64 62 61 58 56 55 54 53 51 48 48 47 46 45 45 44 43
101 103 103 104 104 107 111 112 110 108 107 105 102 97 91 87 84 82 80 77 75 72 70 68 67 65 63 62 60 58 56 55 53 51 50 49 46 43 44 42 42 41 40 39

GFSNGP_250_spd_048.txt.gz
Wind_Speed
29 29 31 28 27 26 26 27 22 27 22 27 28 28 34 38 39 44 46 46 51 51 54 56 57 61 65 69 74 80 82 83 86 90 92 96 98 96 94 96 100 105 109 112
30 29 29 26 27 28 28 27 24 26 26 33 31 35 38 40 44 45 48 51 54 58 59 59 61 65 72 76 79 80 84 88 91 92 99 98 98 95 97 101 106 110 113 115
29 29 28 29 31 29 27 28 28 29 33 35 37 39 45 47 48 51 55 56 57 59 62 63 64 70 75 79 79 84 89 92 94 98 100 100 98 99 103 108 112 115 116 117
31 30 30 34 31 30 31 33 32 32 37 41 42 46 49 49 53 57 57 60 61 63 65 66 72 76 79 82 84 89 93 95 100 102 100 99 101 104 109 112 114 117 118 116
30 31 34 34 33 35 35 37 35 39 43 45 47 51 51 55 58 59 61 62 65 65 68 72 77 81 85 88 91 92 95 100 101 100 99 102 105 110 114 115 116 115 114 114
33 33 35 35 37 38 39 39 40 45 47 49 52 54 57 58 58 60 63 65 65 69 73 77 80 85 89 92 94 97 102 102 102 102 104 107 112 116 117 118 116 115 117 113
34 33 36 36 41 41 42 44 45 48 49 53 56 56 58 59 60 64 65 67 70 73 77 82 85 90 93 96 100 104 104 103 103 105 109 114 117 118 120 118 115 115 112 109
35 35 36 40 40 44 45 47 49 51 53 53 56 58 58 63 63 65 67 73 76 79 83 87 91 95 97 101 107 105 102 103 106 111 115 119 118 117 114 114 115 112 109 108
38 37 39 40 42 46 49 49 49 51 54 56 57 58 58 63 67 71 74 77 81 86 90 92 95 97 102 108 105 103 104 108 113 118 120 119 120 118 115 115 113 111 108 103
43 41 40 42 43 49 48 50 52 52 55 55 58 62 66 69 72 76 81 85 89 93 95 96 97 103 106 104 104 106 110 115 120 122 123 121 116 115 115 112 110 108 101 95
44 42 43 41 46 51 49 50 50 51 57 62 66 70 73 77 80 83 87 91 93 96 96 97 105 107 105 106 108 112 117 122 123 121 118 116 115 114 112 107 103 101 95 88
45 47 48 44 49 52 51 52 56 61 66 70 73 76 79 83 87 89 92 95 96 96 99 107 108 107 107 110 115 120 122 120 120 118 116 114 110 108 107 102 96 94 89 84
48 51 52 51 51 52 56 61 65 69 71 74 77 82 85 88 92 94 97 98 100 102 109 111 109 109 112 117 122 122 122 120 116 113 111 107 105 101 97 96 92 89 86 82
52 52 53 53 56 61 64 68 71 73 77 80 83 86 89 93 96 98 99 101 106 111 110 109 112 116 120 126 124 123 119 114 114 110 109 105 103 99 91 86 85 84 81 77
55 55 56 61 65 69 72 73 75 77 81 85 88 90 95 96 98 100 103 109 111 110 111 114 118 124 127 126 121 117 113 111 108 106 105 100 94 91 87 83 81 79 75 71
60 64 66 68 70 72 72 76 79 83 87 88 92 95 96 99 102 107 110 109 111 114 118 122 127 126 123 119 115 112 110 107 103 97 92 89 86 83 81 80 76 73 70 67
64 66 68 69 71 74 77 81 84 86 89 92 95 97 101 105 109 109 110 112 116 121 125 127 126 121 118 114 109 107 102 100 97 93 90 86 82 80 75 73 71 68 65 63
67 69 71 74 77 80 83 86 88 90 93 97 100 103 107 109 109 111 115 119 123 126 126 123 119 118 112 108 104 97 96 93 91 89 86 84 80 77 72 68 66 65 63 61
72 76 78 80 82 85 88 89 92 94 97 101 104 109 109 109 112 117 121 125 124 122 118 117 114 106 107 104 98 96 93 91 88 85 81 79 76 72 70 66 64 63 62 61
79 81 82 84 86 88 90 92 95 99 102 107 109 109 111 114 119 124 124 121 115 114 114 108 104 107 104 98 96 92 89 87 83 79 77 74 72 69 67 65 63 62 61 58
79 81 85 86 88 91 95 98 101 105 108 107 110 114 118 123 125 122 117 113 114 112 107 106 104 104 99 94 91 87 84 80 76 74 72 70 68 67 65 64 63 61 59 56
85 86 88 90 93 97 100 103 107 107 109 112 116 121 123 121 118 115 114 112 109 107 106 103 100 97 94 91 86 82 77 74 72 69 66 65 65 65 65 63 60 59 58 56
85 89 92 96 100 102 105 106 107 112 114 118 120 118 115 113 112 111 111 110 108 106 103 99 95 91 87 84 80 77 73 69 68 66 65 64 64 63 61 59 57 57 54 53
94 97 99 100 103 103 105 110 113 117 119 117 114 111 111 111 111 110 108 106 103 99 95 92 90 86 82 79 76 72 69 68 67 64 63 61 60 58 58 56 53 52 50 49
93 95 98 101 105 108 113 116 115 112 111 110 110 109 108 109 107 106 104 100 96 92 89 86 84 81 78 76 72 70 68 66 64 62 59 58 57 55 53 51 49 47 45 44
97 101 105 108 111 110 109 109 108 106 107 108 107 107 106 104 103 101 97 93 91 88 85 82 79 77 74 72 70 68 66 64 62 59 58 55 53 52 50 47 45 43 44 43
104 105 105 104 104 103 104 104 104 105 105 106 104 103 102 100 96 93 91 88 86 83 80 78 75 73 71 70 68 66 63 61 60 57 54 53 52 50 47 45 43 42 40 40